Preston, MN

11:36 PM CDT on August 21, 2017 (GMT -0500)
Preston

Weather History for KFKA - December, 2011

Change the Weather History Date:

Monday, December 12, 2011

  Actual Average (KRST) Record (KRST)
Temperature  
Mean Temperature 38 °F -  
Max Temperature 39 °F 28 °F 58 °F (1968)
Min Temperature 37 °F 11 °F -20 °F (1958)
Degree Days  
Heating Degree Days 27    
Moisture  
Dew Point 35 °F    
Average Humidity 85    
Maximum Humidity 89    
Minimum Humidity 82    
Precipitation  
Precipitation 0.00 in - - ()
Sea Level Pressure  
Sea Level Pressure 30.20 in    
Wind  
Wind Speed 10 mph (SSW)    
Max Wind Speed 15 mph    
Max Gust Speed 18 mph    
Visibility 8 miles    
Events Rain    
Averages and records for this station are not official NWS values.
T = Trace of Precipitation, MM = Missing Value Source: NWS Daily Summary

Daily Weather History Graph

Daily Weather History Graph

Search for Another Location

Airport or City:

Trip Planner

Search our weather history database for the weather conditions in past years. The results will help you decide how hot, cold, wet, or windy it might be!

Date:

Astronomy

Dec. 12, 2011 Rise Set
Actual Time 7:32 AM CST 4:31 PM CST
Civil Twilight 7:00 AM CST 5:04 PM CST
Nautical Twilight 6:23 AM CST 5:40 PM CST
Astronomical Twilight 5:49 AM CST 6:15 PM CST
Moon 6:44 PM CST (12/12) 9:03 AM CST (12/12)
Length of Visible Light 10h 04m
Length of Day
8h 58m
Waning Gibbous, 95% of the Moon is Illuminated
Dec 12
Waning Gibbous
Dec 17
Last Quarter
Dec 24
New
Jan 1
First Quarter
Jan 9
Full

Hourly Weather History & Observations

Time (CST) Temp. Windchill Dew Point Humidity Pressure Visibility Wind Dir Wind Speed Gust Speed Precip Events Conditions
12:12 AM 37.9 °F 30.5 °F 34.7 °F 88% 30.17 in 4.0 mi South 11.5 mph - N/A   Overcast
12:32 AM 38.3 °F 31.4 °F 34.9 °F 87% 30.17 in 4.0 mi South 10.4 mph - N/A   Overcast
12:52 AM 38.5 °F 31.6 °F 35.1 °F 87% 30.16 in 5.0 mi South 10.4 mph - N/A   Overcast
1:32 AM 39.2 °F 32.5 °F 34.9 °F 84% 30.16 in 7.0 mi South 10.4 mph - N/A   Overcast
1:52 AM 39.4 °F 32.7 °F 34.7 °F 83% 30.16 in 7.0 mi SSW 10.4 mph - N/A   Overcast
2:12 AM 39.7 °F 32.7 °F 34.9 °F 83% 30.16 in 7.0 mi South 11.5 mph 18.4 mph N/A   Overcast
2:32 AM 39.6 °F 32.1 °F 34.7 °F 83% 30.17 in 7.0 mi SSW 12.7 mph - N/A   Overcast
2:52 AM 39.6 °F 34.0 °F 34.7 °F 83% 30.17 in 7.0 mi South 8.1 mph - N/A   Overcast
3:12 AM 39.2 °F 33.0 °F 34.5 °F 83% 30.17 in 7.0 mi SSW 9.2 mph - N/A   Overcast
3:32 AM 39.4 °F 32.7 °F 34.7 °F 83% 30.17 in 7.0 mi SSW 10.4 mph - N/A   Overcast
3:52 AM 39.6 °F 32.5 °F 34.5 °F 82% 30.16 in 7.0 mi SSW 11.5 mph - N/A   Overcast
4:12 AM 39.2 °F 33.6 °F 34.2 °F 82% 30.16 in 7.0 mi South 8.1 mph - N/A   Overcast
4:32 AM 39.4 °F 31.8 °F 34.3 °F 82% 30.16 in 7.0 mi South 12.7 mph - N/A   Overcast
5:12 AM 39.0 °F 31.4 °F 34.7 °F 84% 30.17 in 7.0 mi South 12.7 mph - N/A   Light Drizzle
5:32 AM 39.2 °F 32.0 °F 34.7 °F 84% 30.17 in 7.0 mi South 11.5 mph - N/A   Overcast
5:52 AM 39.2 °F 32.0 °F 34.7 °F 84% 30.17 in 7.0 mi SSW 11.5 mph - N/A   Overcast
6:12 AM 39.6 °F 31.3 °F 35.1 °F 84% 30.17 in 7.0 mi SSW 15.0 mph - N/A   Light Drizzle
6:52 AM 38.7 °F 32.4 °F 35.4 °F 88% 30.17 in 5.0 mi South 9.2 mph - N/A   Light Drizzle
7:12 AM 38.7 °F 31.8 °F 35.6 °F 89% 30.18 in 7.0 mi SSW 10.4 mph 16.1 mph N/A Rain Light Rain
7:32 AM 38.7 °F 30.9 °F 35.2 °F 87% 30.18 in 5.0 mi South 12.7 mph - N/A   Overcast
7:52 AM 38.7 °F 30.9 °F 35.1 °F 87% 30.19 in 5.0 mi SSW 12.7 mph - N/A   Light Drizzle
8:12 AM 38.5 °F 31.1 °F 34.7 °F 86% 30.19 in 7.0 mi SSW 11.5 mph - N/A   Light Drizzle
8:32 AM 38.3 °F 30.9 °F 34.7 °F 87% 30.19 in 5.0 mi SSW 11.5 mph - N/A Rain Light Rain
8:53 AM 37.9 °F 30.5 °F 34.7 °F 88% 30.19 in 5.0 mi SSW 11.5 mph - N/A   Light Drizzle
9:13 AM 38.3 °F 31.9 °F 34.7 °F 87% 30.20 in 7.0 mi South 9.2 mph - N/A   Overcast
9:32 AM 38.3 °F 32.5 °F 34.7 °F 87% 30.20 in 7.0 mi South 8.1 mph - N/A   Overcast
9:53 AM 38.3 °F 32.5 °F 34.7 °F 87% 30.21 in 7.0 mi SSW 8.1 mph - N/A   Overcast
10:12 AM 38.5 °F 32.7 °F 34.7 °F 86% 30.21 in 7.0 mi South 8.1 mph - N/A   Overcast
10:32 AM 39.2 °F 32.0 °F 34.7 °F 84% 30.22 in 10.0 mi SSW 11.5 mph - N/A   Overcast
10:52 AM 39.2 °F 32.5 °F 34.3 °F 83% 30.22 in 10.0 mi SSW 10.4 mph - N/A   Overcast
11:12 AM 39.2 °F 33.0 °F 34.5 °F 83% 30.22 in 10.0 mi SSW 9.2 mph - N/A   Overcast
11:32 AM 39.2 °F 33.0 °F 34.3 °F 83% 30.22 in 10.0 mi South 9.2 mph - N/A   Overcast
11:52 AM 39.2 °F 32.5 °F 34.3 °F 83% 30.22 in 10.0 mi SSW 10.4 mph - N/A   Overcast
12:12 PM 39.2 °F 32.0 °F 34.3 °F 83% 30.21 in 7.0 mi South 11.5 mph - N/A   Overcast
12:40 PM 38.7 °F 32.9 °F 34.7 °F 86% 30.21 in 7.0 mi South 8.1 mph - N/A   Overcast
12:52 PM 38.7 °F 32.9 °F 34.7 °F 86% 30.21 in 7.0 mi SSW 8.1 mph - N/A   Overcast
1:33 PM 38.5 °F 32.7 °F 34.7 °F 86% 30.21 in 10.0 mi South 8.1 mph - N/A   Overcast
1:52 PM 38.5 °F 33.4 °F 34.3 °F 85% 30.20 in 10.0 mi South 6.9 mph - N/A   Overcast
2:12 PM 38.7 °F 32.9 °F 34.2 °F 84% 30.21 in 10.0 mi SSW 8.1 mph - N/A   Overcast
2:36 PM 38.7 °F 32.9 °F 34.2 °F 84% 30.21 in 10.0 mi South 8.1 mph - N/A   Overcast
2:52 PM 38.7 °F 33.6 °F 34.2 °F 84% 30.21 in 10.0 mi South 6.9 mph - N/A   Overcast
3:14 PM 38.7 °F 33.6 °F 34.2 °F 84% 30.21 in 10.0 mi South 6.9 mph - N/A   Overcast
3:32 PM 38.5 °F 33.4 °F 34.2 °F 84% 30.21 in 10.0 mi South 6.9 mph - N/A   Overcast
3:52 PM 38.3 °F 32.5 °F 34.0 °F 84% 30.22 in 10.0 mi South 8.1 mph - N/A   Overcast
4:12 PM 38.5 °F 33.4 °F 34.0 °F 84% 30.23 in 10.0 mi South 6.9 mph - N/A   Overcast
4:32 PM 38.5 °F 33.4 °F 34.0 °F 84% 30.23 in 10.0 mi South 6.9 mph - N/A   Overcast
4:53 PM 38.3 °F 33.9 °F 33.8 °F 84% 30.23 in 10.0 mi South 5.8 mph - N/A   Overcast
5:12 PM 38.3 °F 33.2 °F 34.0 °F 84% 30.23 in 10.0 mi South 6.9 mph - N/A   Overcast
5:32 PM 38.3 °F 33.9 °F 34.0 °F 84% 30.24 in 10.0 mi South 5.8 mph - N/A   Overcast
5:52 PM 38.3 °F 33.2 °F 34.0 °F 84% 30.25 in 10.0 mi SSW 6.9 mph - N/A   Overcast
6:12 PM 38.3 °F 32.5 °F 34.0 °F 84% 30.25 in 10.0 mi South 8.1 mph - N/A   Overcast
6:32 PM 38.3 °F 33.9 °F 34.0 °F 84% 30.26 in 10.0 mi South 5.8 mph - N/A   Overcast
7:12 PM 38.3 °F 33.2 °F 34.0 °F 84% 30.26 in 10.0 mi South 6.9 mph - N/A   Overcast
7:32 PM 38.3 °F 32.5 °F 34.0 °F 84% 30.26 in 10.0 mi South 8.1 mph - N/A   Overcast
7:52 PM 38.3 °F 32.5 °F 34.0 °F 84% 30.27 in 10.0 mi South 8.1 mph - N/A   Overcast
8:12 PM 38.1 °F 33.7 °F 33.8 °F 84% 30.27 in 10.0 mi South 5.8 mph - N/A   Overcast
8:32 PM 38.3 °F 33.2 °F 33.8 °F 84% 30.28 in 10.0 mi SSW 6.9 mph - N/A   Overcast
8:52 PM 38.1 °F 32.9 °F 33.8 °F 84% 30.28 in 10.0 mi South 6.9 mph - N/A   Overcast
9:13 PM 37.6 °F 34.0 °F 33.8 °F 86% 30.28 in 10.0 mi South 4.6 mph - N/A   Overcast
9:32 PM 37.9 °F 35.5 °F 33.8 °F 85% 30.29 in 10.0 mi SSW 3.5 mph - N/A   Overcast
9:52 PM 37.9 °F 35.5 °F 34.0 °F 86% 30.29 in 10.0 mi SSW 3.5 mph - N/A   Overcast
10:12 PM 37.6 °F 35.1 °F 33.8 °F 86% 30.29 in 10.0 mi South 3.5 mph - N/A   Overcast
10:32 PM 37.6 °F 34.0 °F 33.8 °F 86% 30.29 in 10.0 mi South 4.6 mph - N/A   Overcast
10:52 PM 37.4 °F 32.8 °F 33.8 °F 87% 30.30 in 10.0 mi South 5.8 mph - N/A   Overcast
11:12 PM 37.4 °F 33.8 °F 34.0 °F 87% 30.30 in 7.0 mi South 4.6 mph - N/A   Overcast
11:52 PM 37.4 °F 32.8 °F 34.0 °F 87% 30.30 in 7.0 mi South 5.8 mph - N/A   Overcast